,,,PA_Meas_PMT16A,,PR_Meas_QMR101_102,,RH_Meas_QMH101,,SR_Meas_QMS101,,TA_Meas_QMH101,,GenWind,,GenWind,
date,time,status,PA,status,PR,status,RH,status,SR,status,TA,status,DirAvg,status,SpdAvg,
2011-07-31, 00:00:04,VALID,1003.68,VALID,0,INVALID,163.662,VALID,0,VALID,24.8308,VALID,20,VALID,0,
2011-07-31, 00:01:04,VALID,1003.68,VALID,0,INVALID,163.632,VALID,0,VALID,25.045,VALID,18,VALID,0,
2011-07-31, 00:02:04,VALID,1003.71,VALID,0,INVALID,163.624,VALID,0,VALID,25.3176,VALID,35,VALID,0,
2011-07-31, 00:03:04,VALID,1003.79,VALID,0,INVALID,163.662,VALID,0,VALID,25.5318,VALID,9,VALID,0,
2011-07-31, 00:04:04,VALID,1003.86,VALID,0,INVALID,163.617,VALID,0,VALID,25.5707,VALID,33,VALID,0,
2011-07-31, 00:05:04,VALID,1003.91,VALID,0,INVALID,163.601,VALID,0,VALID,25.6292,VALID,28,VALID,0,
2011-07-31, 00:06:04,VALID,1003.97,VALID,0,INVALID,163.609,VALID,0,VALID,25.6292,VALID,109,VALID,0,
2011-07-31, 00:07:04,VALID,1004.02,VALID,0,INVALID,163.594,VALID,0,VALID,25.5727,VALID,98,VALID,0,
2011-07-31, 00:08:04,VALID,1004.06,VALID,0,INVALID,163.624,VALID,0,VALID,25.5142,VALID,93,VALID,0,
2011-07-31, 00:09:04,VALID,1004.1,VALID,0,INVALID,163.609,VALID,0,VALID,25.452,VALID,93,VALID,0,
2011-07-31, 00:10:04,VALID,1004.12,VALID,0,INVALID,163.639,VALID,0,VALID,25.4169,VALID,93,VALID,0,
2011-07-31, 00:11:04,VALID,1004.18,VALID,0,INVALID,163.632,VALID,0,VALID,25.3565,VALID,102,VALID,0,
2011-07-31, 00:12:04,VALID,1004.21,VALID,0,INVALID,163.647,VALID,0,VALID,25.2981,VALID,65,VALID,0,
2011-07-31, 00:13:04,VALID,1004.23,VALID,0,INVALID,163.617,VALID,0,VALID,25.2416,VALID,91,VALID,0,
2011-07-31, 00:14:04,VALID,1004.25,VALID,0,INVALID,163.647,VALID,0,VALID,25.1618,VALID,79,VALID,0,
2011-07-31, 00:15:04,VALID,1004.26,VALID,0,INVALID,163.723,VALID,0,VALID,25.1034,VALID,82,VALID,0,
2011-07-31, 00:16:04,VALID,1004.24,VALID,0,INVALID,163.67,VALID,0,VALID,25.045,VALID,49,VALID,0,
2011-07-31, 00:17:04,VALID,1004.22,VALID,0,INVALID,163.655,VALID,0,VALID,25.0079,VALID,61,VALID,0,
2011-07-31, 00:18:04,VALID,1004.13,VALID,0,INVALID,163.685,VALID,0,VALID,24.93,VALID,92,VALID,0,
2011-07-31, 00:19:04,VALID,1004.05,VALID,0,INVALID,163.746,VALID,0,VALID,24.8697,VALID,82,VALID,0,
2011-07-31, 00:20:04,VALID,1003.96,VALID,0,INVALID,163.67,VALID,0,VALID,24.8503,VALID,27,VALID,0,
2011-07-31, 00:21:04,VALID,1003.91,VALID,0,INVALID,163.678,VALID,0,VALID,24.7919,VALID,24,VALID,0,
2011-07-31, 00:22:04,VALID,1003.84,VALID,0,INVALID,163.708,VALID,0,VALID,24.7724,VALID,78,VALID,0,
2011-07-31, 00:23:04,VALID,1003.81,VALID,0,INVALID,163.754,VALID,0.100563,VALID,24.7335,VALID,78,VALID,0,
2011-07-31, 00:24:04,VALID,1003.75,VALID,0,INVALID,163.693,VALID,0,VALID,24.675,VALID,74,VALID,0,
2011-07-31, 00:25:04,VALID,1003.73,VALID,0,INVALID,163.67,VALID,0,VALID,24.6166,VALID,53,VALID,0,
2011-07-31, 00:26:04,VALID,1003.67,VALID,0,INVALID,163.739,VALID,0,VALID,24.5972,VALID,53,VALID,0,
2011-07-31, 00:27:04,VALID,1003.66,VALID,0,INVALID,163.693,VALID,0,VALID,24.5796,VALID,53,VALID,0,
2011-07-31, 00:28:04,VALID,1003.67,VALID,0,INVALID,163.693,VALID,0,VALID,24.5388,VALID,53,VALID,0,
2011-07-31, 00:29:04,VALID,1003.72,VALID,0,INVALID,163.678,VALID,0,VALID,24.5193,VALID,53,VALID,0,
2011-07-31, 00:30:04,VALID,1003.8,VALID,0,INVALID,163.723,VALID,0,VALID,24.5193,VALID,53,VALID,0,
2011-07-31, 00:31:04,VALID,1003.86,VALID,0,INVALID,163.67,VALID,0,VALID,24.5212,VALID,53,VALID,0,
2011-07-31, 00:32:04,VALID,1003.95,VALID,0,INVALID,163.701,VALID,0,VALID,24.5174,VALID,53,VALID,0,
2011-07-31, 00:33:04,VALID,1003.99,VALID,0,INVALID,163.693,VALID,0,VALID,24.5601,VALID,53,VALID,0,
2011-07-31, 00:34:04,VALID,1004.09,VALID,0,INVALID,163.685,VALID,0,VALID,24.4998,VALID,56,VALID,0,
2011-07-31, 00:35:04,VALID,1004.14,VALID,0,INVALID,163.701,VALID,0,VALID,24.4822,VALID,83,VALID,0,
2011-07-31, 00:36:04,VALID,1004.11,VALID,0,INVALID,163.67,VALID,0,VALID,24.4025,VALID,97,VALID,0,
2011-07-31, 00:37:04,VALID,1004.1,VALID,0,INVALID,163.716,VALID,0,VALID,24.4414,VALID,16,VALID,0,
2011-07-31, 00:38:04,VALID,1004.05,VALID,0,INVALID,163.678,VALID,0,VALID,24.422,VALID,83,VALID,0,
2011-07-31, 00:39:04,VALID,1004.07,VALID,0,INVALID,163.693,VALID,0,VALID,24.4804,VALID,93,VALID,0,
2011-07-31, 00:40:04,VALID,1004.07,VALID,0,INVALID,163.685,VALID,0,VALID,24.6166,VALID,103,VALID,0,
2011-07-31, 00:41:04,VALID,1004.09,VALID,0,INVALID,163.678,VALID,0,VALID,24.7548,VALID,135,VALID,0,
2011-07-31, 00:42:04,VALID,1004.04,VALID,0,INVALID,163.678,VALID,0,VALID,24.7529,VALID,153,VALID,0,
2011-07-31, 00:43:04,VALID,1004.07,VALID,0,INVALID,163.67,VALID,0,VALID,24.8132,VALID,112,VALID,0,
2011-07-31, 00:44:04,VALID,1004.06,VALID,0,INVALID,163.739,VALID,0,VALID,24.7919,VALID,109,VALID,0,
2011-07-31, 00:45:04,VALID,1004.08,VALID,0.5,INVALID,163.746,VALID,0,VALID,24.7919,VALID,107,VALID,0,
2011-07-31, 00:46:04,VALID,1004.09,VALID,0,INVALID,163.685,VALID,0,VALID,24.7919,VALID,106,VALID,0,
2011-07-31, 00:47:04,VALID,1004.04,VALID,0,INVALID,163.693,VALID,0,VALID,24.7335,VALID,111,VALID,0,
2011-07-31, 00:48:04,VALID,1004.04,VALID,0,INVALID,163.708,VALID,0,VALID,24.6342,VALID,109,VALID,0,
2011-07-31, 00:49:04,VALID,1003.92,VALID,0,INVALID,163.701,VALID,0,VALID,24.5777,VALID,47,VALID,0,
2011-07-31, 00:50:04,VALID,1003.89,VALID,0,INVALID,163.678,VALID,0.100563,VALID,24.459,VALID,86,VALID,0,
2011-07-31, 00:51:04,VALID,1003.9,VALID,0,INVALID,163.685,VALID,0,VALID,24.4025,VALID,56,VALID,0,
2011-07-31, 00:52:04,VALID,1003.9,VALID,0,INVALID,163.723,VALID,0.100563,VALID,24.3441,VALID,31,VALID,0,
2011-07-31, 00:53:04,VALID,1003.9,VALID,0,INVALID,163.701,VALID,0,VALID,24.2857,VALID,26,VALID,0,
2011-07-31, 00:54:04,VALID,1003.87,VALID,0,INVALID,163.723,VALID,0,VALID,24.2662,VALID,23,VALID,0,
2011-07-31, 00:55:04,VALID,1003.86,VALID,0,INVALID,163.708,VALID,0,VALID,24.2273,VALID,26,VALID,0,
2011-07-31, 00:56:04,VALID,1003.84,VALID,0,INVALID,163.769,VALID,0,VALID,24.1476,VALID,55,VALID,0,
2011-07-31, 00:57:04,VALID,1003.8,VALID,0,INVALID,163.731,VALID,0,VALID,24.091,VALID,31,VALID,0,
2011-07-31, 00:58:04,VALID,1003.82,VALID,0,INVALID,163.739,VALID,0,VALID,24.0326,VALID,43,VALID,0,
2011-07-31, 00:59:04,VALID,1003.8,VALID,0,INVALID,163.731,VALID,0,VALID,23.9955,VALID,42,VALID,0,
2011-07-31, 01:00:04,VALID,1003.74,VALID,0,INVALID,163.807,VALID,0,VALID,23.9548,VALID,70,VALID,0,
2011-07-31, 01:01:04,VALID,1003.75,VALID,0,INVALID,163.723,VALID,0,VALID,23.8964,VALID,66,VALID,0,
2011-07-31, 01:02:04,VALID,1003.66,VALID,0,INVALID,163.739,VALID,0.100563,VALID,23.8575,VALID,68,VALID,0,
2011-07-31, 01:03:04,VALID,1003.61,VALID,0,INVALID,163.762,VALID,0,VALID,23.7991,VALID,50,VALID,0,
2011-07-31, 01:04:04,VALID,1003.55,VALID,0,INVALID,163.754,VALID,0,VALID,23.7601,VALID,49,VALID,0,
2011-07-31, 01:05:04,VALID,1003.55,VALID,0,INVALID,163.777,VALID,0,VALID,23.7194,VALID,24,VALID,0,
2011-07-31, 01:06:04,VALID,1003.49,VALID,0,INVALID,163.784,VALID,0,VALID,23.7017,VALID,67,VALID,0,
2011-07-31, 01:07:04,VALID,1003.51,VALID,0,INVALID,163.739,VALID,0,VALID,23.7,VALID,25,VALID,0,
2011-07-31, 01:08:04,VALID,1003.43,VALID,0,INVALID,163.739,VALID,0,VALID,23.7017,VALID,40,VALID,0,
2011-07-31, 01:09:04,VALID,1003.42,VALID,0,INVALID,163.762,VALID,0,VALID,23.7212,VALID,32,VALID,0,
2011-07-31, 01:10:04,VALID,1003.39,VALID,0,INVALID,163.792,VALID,0,VALID,23.7212,VALID,36,VALID,0,
2011-07-31, 01:11:04,VALID,1003.41,VALID,0,INVALID,163.769,VALID,0,VALID,23.661,VALID,92,VALID,0,
2011-07-31, 01:12:04,VALID,1003.44,VALID,0,INVALID,163.762,VALID,0,VALID,23.6823,VALID,104,VALID,0,
2011-07-31, 01:13:04,VALID,1003.45,VALID,0,INVALID,163.746,VALID,0,VALID,23.6823,VALID,108,VALID,0,
2011-07-31, 01:14:04,VALID,1003.47,VALID,0,INVALID,163.731,VALID,0,VALID,23.6823,VALID,87,VALID,0,
2011-07-31, 01:15:04,VALID,1003.48,VALID,0,INVALID,163.8,VALID,0,VALID,23.6434,VALID,92,VALID,0,
2011-07-31, 01:16:04,VALID,1003.43,VALID,0,INVALID,163.754,VALID,0,VALID,23.6044,VALID,72,VALID,0,
2011-07-31, 01:17:04,VALID,1003.44,VALID,0,INVALID,163.769,VALID,0,VALID,23.5655,VALID,31,VALID,0,
2011-07-31, 01:18:04,VALID,1003.4,VALID,0,INVALID,163.754,VALID,0,VALID,23.5071,VALID,38,VALID,0,
2011-07-31, 01:19:04,VALID,1003.4,VALID,0,INVALID,163.792,VALID,0,VALID,23.4877,VALID,34,VALID,0,
2011-07-31, 01:20:04,VALID,1003.35,VALID,0,INVALID,163.8,VALID,0,VALID,23.4293,VALID,69,VALID,0,
2011-07-31, 01:21:04,VALID,1003.32,VALID,0,INVALID,163.777,VALID,0,VALID,23.4487,VALID,44,VALID,0,
2011-07-31, 01:22:04,VALID,1003.28,VALID,0,INVALID,163.792,VALID,0,VALID,23.4487,VALID,20,VALID,0,
2011-07-31, 01:23:04,VALID,1003.28,VALID,0,INVALID,163.777,VALID,0,VALID,23.4275,VALID,50,VALID,0,
2011-07-31, 01:24:04,VALID,1003.26,VALID,0,INVALID,163.838,VALID,0,VALID,23.4098,VALID,33,VALID,0,
2011-07-31, 01:25:04,VALID,1003.26,VALID,0,INVALID,163.784,VALID,0,VALID,23.3904,VALID,22,VALID,0,
2011-07-31, 01:26:04,VALID,1003.22,VALID,0,INVALID,163.83,VALID,0,VALID,23.3904,VALID,61,VALID,0,
2011-07-31, 01:27:04,VALID,1003.2,VALID,0,INVALID,163.769,VALID,0,VALID,23.4098,VALID,18,VALID,0,
2011-07-31, 01:28:04,VALID,1003.18,VALID,0,INVALID,163.777,VALID,0,VALID,23.3904,VALID,49,VALID,0,
2011-07-31, 01:29:04,VALID,1003.17,VALID,0,INVALID,163.784,VALID,0,VALID,23.3709,VALID,52,VALID,0,
2011-07-31, 01:30:04,VALID,1003.13,VALID,0,INVALID,163.777,VALID,0,VALID,23.3302,VALID,25,VALID,0,
2011-07-31, 01:31:04,VALID,1003.15,VALID,0,INVALID,163.769,VALID,0.100563,VALID,23.3691,VALID,73,VALID,0,
2011-07-31, 01:32:04,VALID,1003.13,VALID,0,INVALID,163.777,VALID,0,VALID,23.447,VALID,26,VALID,0,
2011-07-31, 01:33:04,VALID,1003.07,VALID,0,INVALID,163.762,VALID,0.100563,VALID,23.5266,VALID,38,VALID,0,
2011-07-31, 01:34:04,VALID,1003,VALID,0,INVALID,163.792,VALID,0,VALID,23.5266,VALID,21,VALID,0,
2011-07-31, 01:35:04,VALID,1003.01,VALID,0,INVALID,163.769,VALID,0,VALID,23.5071,VALID,36,VALID,0,
2011-07-31, 01:36:04,VALID,1002.96,VALID,0,INVALID,163.762,VALID,0,VALID,23.4859,VALID,42,VALID,0,
2011-07-31, 01:37:04,VALID,1002.94,VALID,0,INVALID,163.8,VALID,0.100563,VALID,23.4664,VALID,44,VALID,0,
2011-07-31, 01:38:04,VALID,1002.94,VALID,0,INVALID,163.769,VALID,0.100563,VALID,23.4275,VALID,71,VALID,0,
2011-07-31, 01:39:04,VALID,1002.92,VALID,0,INVALID,163.746,VALID,0.100563,VALID,23.408,VALID,50,VALID,0,
2011-07-31, 01:40:04,VALID,1002.9,VALID,0,INVALID,163.807,VALID,0,VALID,23.3691,VALID,17,VALID,0,
2011-07-31, 01:41:04,VALID,1002.87,VALID,0,INVALID,163.784,VALID,0.100563,VALID,23.3302,VALID,101,VALID,0,
2011-07-31, 01:42:04,VALID,1002.87,VALID,0,INVALID,163.784,VALID,0.100563,VALID,23.3107,VALID,47,VALID,0,
2011-07-31, 01:43:04,VALID,1002.84,VALID,0,INVALID,163.777,VALID,0.100563,VALID,23.3107,VALID,65,VALID,0,
2011-07-31, 01:44:04,VALID,1002.87,VALID,0,INVALID,163.762,VALID,0.100563,VALID,23.3302,VALID,112,VALID,0,
2011-07-31, 01:45:04,VALID,1002.89,VALID,0,INVALID,163.777,VALID,0,VALID,23.3514,VALID,101,VALID,0,
2011-07-31, 01:46:04,VALID,1002.89,VALID,0,INVALID,163.762,VALID,0,VALID,23.3691,VALID,92,VALID,0,
2011-07-31, 01:47:04,VALID,1002.9,VALID,0,INVALID,163.754,VALID,0,VALID,23.3691,VALID,44,VALID,0,
2011-07-31, 01:48:04,VALID,1002.85,VALID,0,INVALID,163.823,VALID,0,VALID,23.3691,VALID,29,VALID,0,
2011-07-31, 01:49:04,VALID,1002.88,VALID,0,INVALID,163.769,VALID,0,VALID,23.4682,VALID,46,VALID,0,
2011-07-31, 01:50:04,VALID,1002.86,VALID,0,INVALID,163.784,VALID,0.100563,VALID,23.4859,VALID,28,VALID,0,
2011-07-31, 01:51:04,VALID,1002.85,VALID,0,INVALID,163.754,VALID,0,VALID,23.6221,VALID,25,VALID,0,
2011-07-31, 01:52:04,VALID,1002.82,VALID,0,INVALID,163.83,VALID,0.100563,VALID,23.6628,VALID,19,VALID,0,
2011-07-31, 01:53:04,VALID,1002.82,VALID,0,INVALID,163.838,VALID,0.100563,VALID,23.6221,VALID,19,VALID,0,
2011-07-31, 01:54:04,VALID,1002.77,VALID,0,INVALID,163.784,VALID,0,VALID,23.585,VALID,33,VALID,0,
2011-07-31, 01:55:04,VALID,1002.79,VALID,0,INVALID,163.777,VALID,0.100563,VALID,23.5036,VALID,33,VALID,0,
2011-07-31, 01:56:04,VALID,1002.73,VALID,0,INVALID,163.784,VALID,0,VALID,23.4877,VALID,12,VALID,0,
2011-07-31, 01:57:04,VALID,1002.71,VALID,0,INVALID,163.769,VALID,0,VALID,23.4682,VALID,26,VALID,0,
2011-07-31, 01:58:04,VALID,1002.71,VALID,0,INVALID,163.777,VALID,0,VALID,23.447,VALID,65,VALID,0,
2011-07-31, 01:59:04,VALID,1002.72,VALID,0,INVALID,163.8,VALID,0,VALID,23.5071,VALID,97,VALID,0,
2011-07-31, 02:00:04,VALID,1002.73,VALID,0,INVALID,163.769,VALID,0.100563,VALID,23.447,VALID,54,VALID,0,
2011-07-31, 02:01:04,VALID,1002.72,VALID,0,INVALID,163.853,VALID,0.100563,VALID,23.5071,VALID,82,VALID,0,
2011-07-31, 02:02:04,VALID,1002.69,VALID,0,INVALID,163.769,VALID,0.100563,VALID,23.7601,VALID,88,VALID,0,
2011-07-31, 02:03:04,VALID,1002.63,VALID,0,INVALID,163.784,VALID,0,VALID,23.8362,VALID,54,VALID,0,
2011-07-31, 02:04:04,VALID,1002.63,VALID,0,INVALID,163.723,VALID,0,VALID,23.9159,VALID,71,VALID,0,
2011-07-31, 02:05:04,VALID,1002.6,VALID,0,INVALID,163.746,VALID,0.100563,VALID,23.9335,VALID,85,VALID,0,
2011-07-31, 02:06:04,VALID,1002.58,VALID,0,INVALID,142.126,VALID,0,VALID,24.0892,VALID,96,VALID,0,
2011-07-31, 02:07:04,VALID,1002.57,VALID,0,INVALID,162.266,VALID,0.100563,VALID,24.1476,VALID,108,VALID,0,
2011-07-31, 02:08:04,VALID,1002.54,VALID,0,INVALID,163.693,VALID,0.100563,VALID,24.1087,VALID,101,VALID,0,
2011-07-31, 02:09:04,VALID,1002.52,VALID,0,INVALID,163.746,VALID,0,VALID,24.0503,VALID,62,VALID,0,
2011-07-31, 02:10:04,VALID,1002.48,VALID,0,INVALID,163.693,VALID,0,VALID,23.9919,VALID,56,VALID,0,
2011-07-31, 02:11:04,VALID,1002.46,VALID,0,INVALID,160.313,VALID,0,VALID,23.9919,VALID,60,VALID,0,
2011-07-31, 02:12:04,VALID,1002.42,VALID,0,INVALID,148.824,VALID,0.100563,VALID,24.1494,VALID,26,VALID,0,
2011-07-31, 02:13:04,VALID,1002.39,VALID,0,INVALID,141.943,VALID,0,VALID,24.1671,VALID,29,VALID,0,
2011-07-31, 02:14:04,VALID,1002.36,VALID,0,INVALID,114.975,VALID,0,VALID,24.2449,VALID,66,VALID,0,
2011-07-31, 02:15:04,VALID,1002.35,VALID,0,INVALID,136.084,VALID,0,VALID,24.2644,VALID,98,VALID,0,
2011-07-31, 02:16:04,VALID,1002.35,VALID,0,INVALID,140.387,VALID,0,VALID,24.2875,VALID,90,VALID,0,
2011-07-31, 02:17:04,VALID,1002.36,VALID,0,INVALID,153.722,VALID,0.100563,VALID,24.2449,VALID,106,VALID,0,
2011-07-31, 02:18:04,VALID,1002.37,VALID,0,INVALID,162.175,VALID,0,VALID,24.3052,VALID,106,VALID,0,
2011-07-31, 02:19:04,VALID,1002.37,VALID,0,INVALID,163.693,VALID,0.100563,VALID,24.2857,VALID,53,VALID,0,
2011-07-31, 02:20:04,VALID,1002.4,VALID,0,INVALID,163.708,VALID,0.100563,VALID,24.2078,VALID,42,VALID,0,
2011-07-31, 02:21:04,VALID,1002.39,VALID,0,INVALID,163.701,VALID,0,VALID,24.1476,VALID,28,VALID,0,
2011-07-31, 02:22:04,VALID,1002.35,VALID,0,INVALID,163.693,VALID,0,VALID,24.1865,VALID,35,VALID,0,
2011-07-31, 02:23:04,VALID,1002.35,VALID,0,INVALID,163.708,VALID,0,VALID,24.2255,VALID,30,VALID,0,
2011-07-31, 02:24:04,VALID,1002.35,VALID,0,INVALID,163.701,VALID,0,VALID,24.2449,VALID,46,VALID,0,
2011-07-31, 02:25:04,VALID,1002.3,VALID,0,INVALID,163.716,VALID,0.100563,VALID,24.2644,VALID,47,VALID,0,
2011-07-31, 02:26:04,VALID,1002.33,VALID,0,INVALID,163.731,VALID,0.100563,VALID,24.2857,VALID,10,VALID,0,
2011-07-31, 02:27:04,VALID,1002.32,VALID,0,INVALID,163.693,VALID,0.100563,VALID,24.2644,VALID,51,VALID,0,
2011-07-31, 02:28:04,VALID,1002.33,VALID,0,INVALID,163.708,VALID,0,VALID,24.2449,VALID,43,VALID,0,
2011-07-31, 02:29:04,VALID,1002.35,VALID,0,INVALID,163.716,VALID,0,VALID,24.2255,VALID,112,VALID,0,
2011-07-31, 02:30:04,VALID,1002.38,VALID,0,INVALID,163.716,VALID,0,VALID,24.2097,VALID,98,VALID,0,
2011-07-31, 02:31:04,VALID,1002.4,VALID,0,INVALID,163.716,VALID,0,VALID,24.1494,VALID,105,VALID,0,
2011-07-31, 02:32:04,VALID,1002.4,VALID,0,INVALID,163.708,VALID,0,VALID,24.1105,VALID,74,VALID,0,
2011-07-31, 02:33:04,VALID,1002.38,VALID,0,INVALID,163.723,VALID,0,VALID,24.1123,VALID,96,VALID,0,
2011-07-31, 02:34:04,VALID,1002.38,VALID,0,INVALID,163.731,VALID,0,VALID,24.0521,VALID,91,VALID,0,
2011-07-31, 02:35:04,VALID,1002.38,VALID,0,INVALID,163.746,VALID,0,VALID,24.0345,VALID,92,VALID,0,
2011-07-31, 02:36:04,VALID,1002.35,VALID,0,INVALID,163.746,VALID,0,VALID,23.9761,VALID,67,VALID,0,
2011-07-31, 02:37:04,VALID,1002.34,VALID,0,INVALID,163.731,VALID,0,VALID,23.9353,VALID,18,VALID,0,
2011-07-31, 02:38:04,VALID,1002.29,VALID,0,INVALID,163.731,VALID,0,VALID,23.9159,VALID,18,VALID,0,
2011-07-31, 02:39:04,VALID,1002.31,VALID,0,INVALID,163.784,VALID,0,VALID,23.9177,VALID,18,VALID,0,
2011-07-31, 02:40:04,VALID,1002.27,VALID,0,INVALID,163.746,VALID,0,VALID,23.8769,VALID,18,VALID,0,
2011-07-31, 02:41:04,VALID,1002.28,VALID,0,INVALID,163.739,VALID,0,VALID,23.8575,VALID,18,VALID,0,
2011-07-31, 02:42:04,VALID,1002.32,VALID,0,INVALID,163.731,VALID,0,VALID,23.8398,VALID,18,VALID,0,
2011-07-31, 02:43:04,VALID,1002.3,VALID,0,INVALID,163.807,VALID,0,VALID,23.8185,VALID,18,VALID,0,
2011-07-31, 02:44:04,VALID,1002.31,VALID,0,INVALID,163.83,VALID,0,VALID,23.7796,VALID,18,VALID,0,
2011-07-31, 02:45:04,VALID,1002.33,VALID,0,INVALID,163.731,VALID,0,VALID,23.7796,VALID,17,VALID,0,
2011-07-31, 02:46:04,VALID,1002.32,VALID,0,INVALID,163.739,VALID,0,VALID,23.6841,VALID,18,VALID,0,
2011-07-31, 02:47:04,VALID,1002.34,VALID,0,INVALID,163.815,VALID,0,VALID,23.6062,VALID,3,VALID,0,
2011-07-31, 02:48:04,VALID,1002.37,VALID,0,INVALID,163.815,VALID,0,VALID,23.5673,VALID,355,VALID,0,
2011-07-31, 02:49:04,VALID,1002.37,VALID,0,INVALID,163.784,VALID,0,VALID,23.5266,VALID,355,VALID,0,
2011-07-31, 02:50:04,VALID,1002.36,VALID,0,INVALID,163.769,VALID,0,VALID,23.5266,VALID,314,VALID,0,
2011-07-31, 02:51:04,VALID,1002.38,VALID,0,INVALID,163.784,VALID,0,VALID,23.546,VALID,249,VALID,0,
2011-07-31, 02:52:05,VALID,1002.4,VALID,0,INVALID,163.754,VALID,0,VALID,23.5673,VALID,138,VALID,0,
2011-07-31, 02:53:05,VALID,1002.39,VALID,0,INVALID,163.762,VALID,0,VALID,23.5284,VALID,146,VALID,0,
2011-07-31, 02:54:05,VALID,1002.41,VALID,0,INVALID,163.8,VALID,0,VALID,23.4877,VALID,182,VALID,0,
2011-07-31, 02:55:05,VALID,1002.4,VALID,0,INVALID,163.777,VALID,0,VALID,23.5284,VALID,155,VALID,0,
2011-07-31, 02:56:05,VALID,1002.4,VALID,0,INVALID,163.762,VALID,0,VALID,23.5284,VALID,78,VALID,0,
2011-07-31, 02:57:05,VALID,1002.4,VALID,0,INVALID,163.777,VALID,0,VALID,23.4505,VALID,77,VALID,0,
2011-07-31, 02:58:05,VALID,1002.38,VALID,0,INVALID,163.823,VALID,0,VALID,23.3921,VALID,77,VALID,0,
2011-07-31, 02:59:05,VALID,1002.33,VALID,0,INVALID,163.861,VALID,0,VALID,23.3532,VALID,75,VALID,0,
2011-07-31, 03:00:05,VALID,1002.35,VALID,0,INVALID,163.754,VALID,0,VALID,23.2718,VALID,75,VALID,0,
2011-07-31, 03:01:05,VALID,1002.3,VALID,0,INVALID,163.754,VALID,0,VALID,23.2329,VALID,40,VALID,0,
2011-07-31, 03:02:05,VALID,1002.31,VALID,0,INVALID,163.8,VALID,0,VALID,23.2134,VALID,40,VALID,0,
2011-07-31, 03:03:05,VALID,1002.29,VALID,0,INVALID,163.777,VALID,0,VALID,23.2152,VALID,40,VALID,0,
2011-07-31, 03:04:05,VALID,1002.31,VALID,0,INVALID,163.792,VALID,0,VALID,23.1745,VALID,40,VALID,0,
2011-07-31, 03:05:05,VALID,1002.28,VALID,0,INVALID,163.8,VALID,0.100563,VALID,23.194,VALID,40,VALID,0,
2011-07-31, 03:06:05,VALID,1002.3,VALID,0,INVALID,163.784,VALID,0,VALID,23.2152,VALID,35,VALID,0,
2011-07-31, 03:07:05,VALID,1002.29,VALID,0,INVALID,163.762,VALID,0,VALID,23.1957,VALID,9,VALID,0,
2011-07-31, 03:08:05,VALID,1002.28,VALID,0,INVALID,163.777,VALID,0,VALID,23.1356,VALID,12,VALID,0,
2011-07-31, 03:09:05,VALID,1002.24,VALID,0,INVALID,163.807,VALID,0,VALID,23.1162,VALID,12,VALID,0,
2011-07-31, 03:10:05,VALID,1002.2,VALID,0,INVALID,163.8,VALID,0,VALID,23.0984,VALID,12,VALID,0,
2011-07-31, 03:11:05,VALID,1002.18,VALID,0,INVALID,163.792,VALID,0,VALID,23.0984,VALID,12,VALID,0,
2011-07-31, 03:12:05,VALID,1002.13,VALID,0,INVALID,163.777,VALID,0,VALID,23.0578,VALID,10,VALID,0,
2011-07-31, 03:13:05,VALID,1002.1,VALID,0,INVALID,163.784,VALID,0,VALID,23.0984,VALID,10,VALID,0,
2011-07-31, 03:14:05,VALID,1002.08,VALID,0,INVALID,163.777,VALID,0.100563,VALID,23.079,VALID,10,VALID,0,
2011-07-31, 03:15:05,VALID,1002.12,VALID,0,INVALID,163.815,VALID,0,VALID,23.0578,VALID,10,VALID,0,
2011-07-31, 03:16:05,VALID,1002.09,VALID,0,INVALID,163.8,VALID,0.100563,VALID,23.079,VALID,2,VALID,0,
2011-07-31, 03:17:05,VALID,1002.12,VALID,0.5,INVALID,163.792,VALID,0,VALID,23.0578,VALID,2,VALID,0,
2011-07-31, 03:18:05,VALID,1002.15,VALID,0,INVALID,163.807,VALID,0,VALID,23.079,VALID,3,VALID,0,
2011-07-31, 03:19:05,VALID,1002.18,VALID,0,INVALID,163.807,VALID,0,VALID,23.0383,VALID,3,VALID,0,
2011-07-31, 03:20:05,VALID,1002.21,VALID,0,INVALID,163.8,VALID,0,VALID,23.0171,VALID,2,VALID,0,
2011-07-31, 03:21:05,VALID,1002.22,VALID,0,INVALID,163.807,VALID,0,VALID,23.0189,VALID,3,VALID,0,
2011-07-31, 03:22:05,VALID,1002.24,VALID,0,INVALID,163.807,VALID,0,VALID,23.0401,VALID,3,VALID,0,
2011-07-31, 03:23:05,VALID,1002.26,VALID,0,INVALID,163.777,VALID,0,VALID,23.0206,VALID,3,VALID,0,
2011-07-31, 03:24:05,VALID,1002.27,VALID,0,INVALID,163.777,VALID,0,VALID,23.0401,VALID,3,VALID,0,
2011-07-31, 03:25:05,VALID,1002.28,VALID,0,INVALID,163.792,VALID,0,VALID,23.0401,VALID,3,VALID,0,
2011-07-31, 03:26:05,VALID,1002.33,VALID,0,INVALID,163.807,VALID,0,VALID,23.0206,VALID,3,VALID,0,
2011-07-31, 03:27:05,VALID,1002.33,VALID,0,INVALID,163.815,VALID,0,VALID,23.0383,VALID,3,VALID,0,
2011-07-31, 03:28:05,VALID,1002.32,VALID,0,INVALID,163.807,VALID,0,VALID,23.0206,VALID,3,VALID,0,
2011-07-31, 03:29:05,VALID,1002.33,VALID,0,INVALID,163.807,VALID,0,VALID,23.0012,VALID,2,VALID,0,
2011-07-31, 03:30:05,VALID,1002.32,VALID,0,INVALID,163.8,VALID,0.100563,VALID,23.0012,VALID,3,VALID,0,
2011-07-31, 03:31:05,VALID,1002.31,VALID,0,INVALID,163.807,VALID,0,VALID,22.9817,VALID,2,VALID,0,
2011-07-31, 03:32:05,VALID,1002.3,VALID,0,INVALID,163.807,VALID,0,VALID,22.9817,VALID,2,VALID,0,
2011-07-31, 03:33:05,VALID,1002.3,VALID,0,INVALID,163.807,VALID,0.100563,VALID,22.941,VALID,3,VALID,0,
2011-07-31, 03:34:05,VALID,1002.32,VALID,0,INVALID,163.8,VALID,0,VALID,22.9216,VALID,2,VALID,0,
2011-07-31, 03:35:05,VALID,1002.3,VALID,0,INVALID,163.823,VALID,0,VALID,22.9233,VALID,3,VALID,0,
2011-07-31, 03:36:05,VALID,1002.3,VALID,0,INVALID,163.8,VALID,0,VALID,22.8827,VALID,2,VALID,0,
2011-07-31, 03:37:05,VALID,1002.32,VALID,0,INVALID,163.823,VALID,0,VALID,22.9021,VALID,3,VALID,0,
2011-07-31, 03:38:05,VALID,1002.32,VALID,0,INVALID,163.838,VALID,0,VALID,22.9216,VALID,3,VALID,0,
2011-07-31, 03:39:05,VALID,1002.32,VALID,0,INVALID,163.8,VALID,0,VALID,22.9233,VALID,3,VALID,0,
2011-07-31, 03:40:05,VALID,1002.35,VALID,0,INVALID,163.8,VALID,0,VALID,22.9021,VALID,6,VALID,0,
2011-07-31, 03:41:05,VALID,1002.36,VALID,0,INVALID,163.784,VALID,0,VALID,22.8632,VALID,16,VALID,0,
2011-07-31, 03:42:05,VALID,1002.37,VALID,0,INVALID,163.8,VALID,0,VALID,22.8649,VALID,28,VALID,0,
2011-07-31, 03:43:05,VALID,1002.41,VALID,0,INVALID,163.83,VALID,0,VALID,22.8243,VALID,28,VALID,0,
2011-07-31, 03:44:05,VALID,1002.42,VALID,0,INVALID,163.792,VALID,0,VALID,22.7854,VALID,28,VALID,0,
2011-07-31, 03:45:05,VALID,1002.41,VALID,0,INVALID,163.823,VALID,0,VALID,22.8066,VALID,28,VALID,0,
2011-07-31, 03:46:05,VALID,1002.42,VALID,0,INVALID,163.807,VALID,0,VALID,22.7677,VALID,27,VALID,0,
2011-07-31, 03:47:05,VALID,1002.43,VALID,0,INVALID,163.838,VALID,0,VALID,22.7482,VALID,23,VALID,0,
2011-07-31, 03:48:05,VALID,1002.46,VALID,0,INVALID,163.792,VALID,0,VALID,22.7093,VALID,22,VALID,0,
2011-07-31, 03:49:05,VALID,1002.48,VALID,0,INVALID,163.807,VALID,0,VALID,22.6915,VALID,22,VALID,0,
2011-07-31, 03:50:05,VALID,1002.5,VALID,0,INVALID,163.823,VALID,0,VALID,22.6526,VALID,22,VALID,0,
2011-07-31, 03:51:05,VALID,1002.51,VALID,0,INVALID,163.823,VALID,0,VALID,22.612,VALID,22,VALID,0,
2011-07-31, 03:52:05,VALID,1002.53,VALID,0,INVALID,163.815,VALID,0,VALID,22.6315,VALID,22,VALID,0,
2011-07-31, 03:53:05,VALID,1002.52,VALID,0,INVALID,163.838,VALID,0,VALID,22.6315,VALID,22,VALID,0,
2011-07-31, 03:54:05,VALID,1002.52,VALID,0,INVALID,163.838,VALID,0,VALID,22.6526,VALID,22,VALID,0,
2011-07-31, 03:55:05,VALID,1002.53,VALID,0,INVALID,163.792,VALID,0,VALID,22.6509,VALID,22,VALID,0,